SDO

Last updated on Mon Sep 21 2026 00:02:58 GMT+0000 (Coordinated Universal Time)

1 36395U 10005A 26262.50427488 -.00000066 00000+0 00000+0 0 9999 2 36395 34.8457 84.9076 0001506 82.9624 270.4923 1.00275014 61000
UTC large
Height (km)
Speed (km/s)
/
Latitude / Longitude
Inclination (degrees)
Orbital Period (minutes)
Azimuth
Elevation
Range (km)
Doppler Factor

Next 0 passes for location: London (51.5072 / 0.1276)

No passes found over London.
SDO